Location: Gokavaram
(16.9752°N, 81.0696°E)
Time: 11:09:06
(UTC+00:00)

COSMOS 2406 - Pass Details

Date: 15 May 2026
Orbit: 846 x 859 km, 71.0° (Epoch: 5 June)

Event Time Altitude Azimuth Distance (km) Brightness Sun altitude
Rises 14:22:55 0° 193° (SSW) 3,416 6.2 -19.0°
Reaches altitude 10° 14:25:22 10° 192° (SSW) 2,482 5.5 -19.5°
Maximum altitude 14:31:05 79° 106° (ESE) 873 3.1 -20.7°
Drops below altitude 10° 14:36:48 10° 20° (NNE) 2,487 5.7 -21.9°
Sets 14:39:15 0° 19° (NNE) 3,424 6.5 -22.4°
